Location: Kellogg
(38.0159°N, 90.0546°W)
Time: 08:37:42
(UTC+00:00)

A-11 Canister half - All Passes

Search period start: 19 September 2024 00:00
Search period end: 29 September 2024 00:00
Orbit: 1524 x 1684 km, 47.3° (Epoch: 18 September)

Date Brightness Start Highest point End Pass type
(mag) Time Alt. Az. Time Alt. Az. Time Alt. Az.
19 Sep - 01:51:13 10° WNW 02:00:37 50° SW 02:10:13 10° SSE visible
19 Sep - 04:01:51 10° WSW 04:04:04 11° WSW 04:06:17 10° SW visible
19 Sep - 17:07:34 10° SSW 17:16:19 48° SE 17:25:18 10° ENE daylight
19 Sep - 19:11:42 10° WSW 19:21:05 70° NNW 19:30:49 10° ENE daylight
19 Sep - 21:18:12 10° WNW 21:27:25 49° N 21:36:57 10° ENE daylight
19 Sep - 23:24:05 10° WNW 23:33:50 68° NNE 23:43:52 10° ESE daylight
20 Sep - 01:29:24 10° WNW 01:38:52 52° SW 01:48:31 10° SSE visible
20 Sep - 03:39:00 10° W 03:42:21 12° WSW 03:45:45 10° SW visible
20 Sep - 16:45:57 10° SSW 16:54:36 45° SE 17:03:27 10° ENE daylight
20 Sep - 18:49:54 10° WSW 18:59:16 72° NNW 19:08:59 10° ENE daylight
20 Sep - 20:56:22 10° WNW 21:05:33 49° N 21:15:04 10° ENE daylight
20 Sep - 23:02:17 10° WNW 23:12:00 66° NNE 23:21:59 10° ESE daylight
21 Sep - 01:07:35 10° WNW 01:17:05 55° SW 01:26:50 10° SSE visible
21 Sep - 03:16:29 10° W 03:20:39 13° WSW 03:24:51 10° SSW visible
21 Sep - 16:24:21 10° SSW 16:32:53 43° SE 16:41:36 10° ENE daylight
21 Sep - 18:28:06 10° WSW 18:37:28 75° NNW 18:47:11 10° ENE daylight
21 Sep - 20:34:31 10° WNW 20:43:41 49° N 20:53:10 10° ENE daylight
21 Sep - 22:40:30 10° WNW 22:50:09 65° NNE 23:00:06 10° ESE daylight
22 Sep - 00:45:46 10° WNW 00:55:19 58° SW 01:05:07 10° SSE visible
22 Sep - 02:54:08 10° W 02:58:57 15° WSW 03:03:48 10° SSW visible
22 Sep - 16:02:45 10° SSW 16:11:10 40° SE 16:19:44 10° ENE daylight
22 Sep - 18:06:18 10° WSW 18:15:41 77° NNW 18:25:21 10° ENE daylight
22 Sep - 20:12:41 10° WNW 20:21:50 49° N 20:31:17 10° ENE daylight
22 Sep - 22:18:44 10° WNW 22:28:19 63° NNE 22:38:14 10° ESE daylight
23 Sep - 00:23:57 10° WNW 00:33:33 60° SW 00:43:23 10° SE visible
23 Sep - 02:31:54 10° W 02:37:14 16° WSW 02:42:38 10° SSW visible
23 Sep - 15:41:11 10° SSW 15:49:27 38° SE 15:57:52 10° ENE daylight
23 Sep - 17:44:31 10° WSW 17:53:53 79° NNW 18:03:33 10° ENE daylight
23 Sep - 19:50:50 10° W 19:59:58 50° N 20:09:24 10° ENE daylight
23 Sep - 21:56:55 10° WNW 22:06:28 61° NNE 22:16:19 10° E daylight
24 Sep - 00:02:10 10° WNW 00:11:46 63° SW 00:21:39 10° SE visible
24 Sep - 02:09:45 10° W 02:15:31 17° WSW 02:21:24 10° SSW visible
24 Sep - 15:19:37 10° SSW 15:27:45 36° SE 15:36:00 10° ENE daylight
24 Sep - 17:22:45 10° WSW 17:32:06 82° NNW 17:41:44 10° ENE daylight
24 Sep - 19:29:00 10° W 19:38:06 50° N 19:47:32 10° ENE daylight
24 Sep - 21:35:08 10° WNW 21:44:38 60° NNE 21:54:26 10° E daylight
24 Sep - 23:40:22 10° WNW 23:50:00 66° SW 23:59:55 10° SE daylight
25 Sep - 01:47:38 10° W 01:53:49 19° SW 02:00:05 10° SSW visible
25 Sep - 14:58:05 10° S 15:06:02 34° SE 15:14:06 10° ENE daylight
25 Sep - 17:00:59 10° WSW 17:10:19 85° NNW 17:19:55 10° ENE daylight
25 Sep - 19:07:09 10° W 19:16:15 50° N 19:25:39 10° ENE daylight
25 Sep - 21:13:21 10° WNW 21:22:47 58° NNE 21:32:33 10° E daylight
25 Sep - 23:18:35 10° WNW 23:28:13 69° SW 23:38:10 10° SE daylight
26 Sep - 01:25:34 10° W 01:32:05 20° SW 01:38:44 10° SSW visible
26 Sep - 14:36:32 10° S 14:44:21 31° SE 14:52:13 10° ENE daylight
26 Sep - 16:39:12 10° WSW 16:48:32 88° NNW 16:58:07 10° ENE daylight
26 Sep - 18:45:19 10° W 18:54:24 51° N 19:03:47 10° ENE daylight
26 Sep - 20:51:33 10° WNW 21:00:56 57° NNE 21:10:39 10° E daylight
26 Sep - 22:56:47 10° WNW 23:06:26 72° SW 23:16:23 10° SE daylight
27 Sep - 01:03:33 10° W 01:10:22 21° SW 01:17:20 10° S visible
27 Sep - 14:15:02 10° S 14:22:38 30° SE 14:30:18 10° ENE daylight
27 Sep - 16:17:26 10° SW 16:26:45 89° SSE 16:36:18 10° ENE daylight
27 Sep - 18:23:29 10° W 18:32:33 51° N 18:41:55 10° ENE daylight
27 Sep - 20:29:45 10° WNW 20:39:06 56° NNE 20:48:44 10° E daylight
27 Sep - 22:35:01 10° WNW 22:44:39 75° SW 22:54:37 10° SE daylight
28 Sep - 00:41:33 10° W 00:48:39 23° SW 00:55:55 10° S visible
28 Sep - 13:53:32 10° S 14:00:57 28° SE 14:08:23 10° ENE daylight
28 Sep - 15:55:41 10° SW 16:04:59 86° SSE 16:14:30 10° ENE daylight
28 Sep - 18:01:37 10° W 18:10:43 52° N 18:20:04 10° ENE daylight
28 Sep - 20:07:57 10° WNW 20:17:15 55° NNE 20:26:50 10° E daylight
28 Sep - 22:13:13 10° WNW 22:22:52 78° SW 22:32:50 10° SE daylight
